SVFLIR Weather Reports


Display with metric or nautical units.
time (UTC)temp
F
wind
direction
speed
MPH
gust
MPH
rain 1hr
in
rain 24hr
in
rain mn
in
humidity
%
barometer
mb
20260905043304 91 241 10.0 13.0 0.00 0.00 0.00 100 1009.4
20260905042804 91 258 9.0 13.0 0.00 0.00 0.00 100 1009.4
20260905042307 90 255 8.0 13.0 0.00 0.00 0.00 100 1009.4
20260905041803 91 246 9.0 14.0 0.00 0.00 0.00 100 1009.4
20260905041302 92 244 9.0 14.0 0.00 0.00 0.00 100 1009.4
20260905041023 91 264 8.0 14.0 0.00 0.00 0.00 100 1009.4
20260905040301 91 254 11.0 14.0 0.00 0.00 0.00 100 1009.4
20260905035800 91 253 9.0 13.0 0.00 0.00 0.00 100 1009.4
20260905035300 91 244 8.0 12.0 0.00 0.00 0.00 100 1009.4
20260905034759 91 258 8.0 13.0 0.00 0.00 0.00 100 1009.4
20260905034520 91 260 8.0 13.0 0.00 0.00 0.00 100 1009.4
20260905033759 92 255 11.0 13.0 0.00 0.00 0.00 100 1009.4
20260905033258 91 255 9.0 13.0 0.00 0.00 0.00 100 1009.4
20260905032757 91 239 10.0 18.0 0.00 0.00 0.00 100 1009.4
20260905032256 91 246 10.0 18.0 0.00 0.00 0.00 100 1009.4
20260905031755 91 261 8.0 12.0 0.00 0.00 0.00 100 1009.4
20260905031255 91 253 10.0 13.0 0.00 0.00 0.00 100 1009.4
20260905030754 91 232 8.0 13.0 0.00 0.00 0.00 100 1009.4
20260905030254 91 257 10.0 14.0 0.00 0.00 0.00 100 1009.4
20260905025753 91 268 9.0 15.0 0.00 0.00 0.00 100 1009.4
20260905025252 91 267 11.0 15.0 0.00 0.00 0.00 100 1009.4
20260905024752 91 268 9.0 14.0 0.00 0.00 0.00 100 1009.4
20260905024251 92 258 10.0 16.0 0.00 0.00 0.00 100 1009.4
20260905023751 92 251 10.0 16.0 0.00 0.00 0.00 100 1009.4
20260905023250 92 248 11.0 18.0 0.00 0.00 0.00 100 1009.4
20260905023012 92 258 11.0 18.0 0.00 0.00 0.00 100 1009.4
20260905022250 92 265 12.0 18.0 0.00 0.00 0.00 100 1009.4
20260905021749 92 246 10.0 18.0 0.00 0.00 0.00 100 1009.4
20260905021248 92 250 10.0 14.0 0.00 0.00 0.00 100 1009.4
20260905021012 93 253 8.0 13.0 0.00 0.00 0.00 100 1009.4
20260905020247 92 261 9.0 13.0 0.00 0.00 0.00 100 1009.4
20260905020013 93 274 8.0 14.0 0.00 0.00 0.00 100 1009.4
20260905015245 93 262 10.0 14.0 0.00 0.00 0.00 100 1009.4
20260905015007 93 282 9.0 14.0 0.00 0.00 0.00 100 1009.4
20260905014244 93 265 8.0 15.0 0.00 0.00 0.00 100 1009.4
20260905013743 93 243 8.0 15.0 0.00 0.00 0.00 100 1009.4
20260905013243 93 295 9.0 15.0 0.00 0.00 0.00 100 1009.4
20260905012743 93 257 5.0 17.0 0.00 0.00 0.00 100 1009.4
20260905012242 94 243 10.0 17.0 0.00 0.00 0.00 100 1009.4
20260905011741 94 267 9.0 16.0 0.00 0.00 0.00 100 1009.4
20260905011508 94 240 8.0 19.0 0.00 0.00 0.00 100 1009.4
20260905010740 94 257 13.0 19.0 0.00 0.00 0.00 100 1009.4
20260905010239 94 241 8.0 11.0 0.00 0.00 0.00 100 1009.4
20260905005739 95 233 7.0 12.0 0.00 0.00 0.00 100 1009.4
20260905005238 94 232 5.0 12.0 0.00 0.00 0.00 100 1009.4
20260905004738 94 151 1.0 11.0 0.00 0.00 0.00 100 1009.4
20260905004237 94 189 5.0 11.0 0.00 0.00 0.00 100 1009.4
20260905003736 94 236 5.0 11.0 0.00 0.00 0.00 100 1009.4
20260905003236 94 244 1.0 8.0 0.00 0.00 0.00 100 1009.4
20260905002735 94 282 0.0 8.0 0.00 0.00 0.00 100 1009.4
20260905002500 94 250 5.0 8.0 0.00 0.00 0.00 100 1009.4
20260905001731 94 241 3.0 10.0 0.00 0.00 0.00 100 1009.4
20260905001232 93 281 1.0 12.0 0.00 0.00 0.00 100 1009.4
20260905000731 94 282 8.0 12.0 0.00 0.00 0.00 100 1009.4
20260905000229 95 248 6.0 11.0 0.00 0.00 0.00 100 1009.4
20260904235948 95 244 7.0 13.0 0.00 0.00 0.00 100 1009.4
20260904235450 94 299 6.0 13.0 0.00 0.00 0.00 100 1009.4
20260904234728 93 262 9.0 16.0 0.00 0.00 0.00 100 1009.4
20260904234227 94 275 8.0 16.0 0.00 0.00 0.00 100 1009.4
20260904233727 95 250 5.0 15.0 0.00 0.00 0.00 100 1009.4
20260904233443 94 205 7.0 15.0 0.00 0.00 0.00 100 1009.4
20260904232726 95 234 7.0 15.0 0.00 0.00 0.00 100 1009.4
20260904232225 95 220 8.0 14.0 0.00 0.00 0.00 100 1009.4
20260904231953 95 253 3.0 13.0 0.00 0.00 0.00 100 1009.4
20260904231458 95 271 9.0 13.0 0.00 0.00 0.00 100 1009.4
20260904230724 95 279 10.0 13.0 0.00 0.00 0.00 100 1009.4
20260904230223 96 246 9.0 13.0 0.00 0.00 0.00 100 1009.4
20260904225722 97 234 7.0 14.0 0.00 0.00 0.00 100 1009.4
20260904225445 95 206 8.0 16.0 0.00 0.00 0.00 100 1009.4
20260904224721 95 262 9.0 16.0 0.00 0.00 0.00 100 1009.4
20260904224220 94 247 10.0 15.0 0.00 0.00 0.00 100 1009.4
20260904223719 94 232 9.0 14.0 0.00 0.00 0.00 100 1009.4
20260904223220 94 244 11.0 14.0 0.00 0.00 0.00 100 1009.4
20260904222718 95 292 2.0 9.0 0.00 0.00 0.00 100 1009.4
20260904222211 95 229 0.0 8.0 0.00 0.00 0.00 100 1009.4
20260904221640 97 213 1.0 10.0 0.00 0.00 0.00 100 1009.4
20260904221140 97 181 6.0 17.0 0.00 0.00 0.00 100 1009.4
20260904220639 97 226 9.0 17.0 0.00 0.00 0.00 100 1009.4
20260904220139 95 254 7.0 18.0 0.00 0.00 0.00 100 1009.4
20260904215638 95 236 12.0 18.0 0.00 0.00 0.00 100 1009.4
20260904215137 98 206 6.0 13.0 0.00 0.00 0.00 100 1009.4
20260904214637 98 208 2.0 14.0 0.00 0.00 0.00 100 1009.4
20260904214136 98 265 6.0 14.0 0.00 0.00 0.00 100 1009.4
20260904213859 98 220 4.0 13.0 0.00 0.00 0.00 100 1009.4
20260904213136 97 279 2.0 9.0 0.00 0.00 0.00 100 1009.4
20260904212628 95 309 2.0 9.0 0.00 0.00 0.00 100 1009.4
20260904212347 95 306 0.0 17.0 0.00 0.00 0.00 100 1009.4
20260904211627 95 262 8.0 17.0 0.00 0.00 0.00 100 1009.4
20260904211127 97 258 10.0 14.0 0.00 0.00 0.00 100 1009.4
20260904210626 97 225 6.0 13.0 0.00 0.00 0.00 100 1009.4
20260904210125 97 222 8.0 12.0 0.00 0.00 0.00 100 1009.4
20260904205625 91 182 7.0 13.0 0.00 0.00 0.00 100 1009.4
20260904205124 91 154 6.0 14.0 0.00 0.00 0.00 100 1009.4
20260904204623 91 188 9.0 16.0 0.00 0.00 0.00 100 1009.4
20260904204122 91 208 6.0 16.0 0.00 0.00 0.00 100 1009.4
20260904203623 92 175 4.0 13.0 0.00 0.00 0.00 100 1009.4
20260904203122 91 222 5.0 11.0 0.00 0.00 0.00 100 1009.4
20260904202621 94 40 1.0 12.0 0.00 0.00 0.00 100 1009.4
20260904202348 95 270 8.0 17.0 0.00 0.00 0.00 100 1009.4
20260904201620 95 160 6.0 18.0 0.00 0.00 0.00 100 1009.4
20260904200618 94 195 11.0 15.0 0.00 0.00 0.00 100 1009.4
20260904200118 93 150 9.0 17.0 0.00 0.00 0.00 100 1009.4
20260904195618 92 212 5.0 17.0 0.00 0.00 0.00 100 1009.4
20260904195117 92 233 4.0 14.0 0.00 0.00 0.00 100 1009.4
20260904194616 94 219 9.0 14.0 0.00 0.00 0.00 100 1009.4
20260904194116 93 220 10.0 13.0 0.00 0.00 0.00 100 1009.4
20260904193615 93 127 6.0 13.0 0.00 0.00 0.00 100 1009.4
20260904193114 93 187 11.0 13.0 0.00 0.00 0.00 100 1009.4
20260904192614 92 201 6.0 18.0 0.00 0.00 0.00 100 1009.4
20260904192113 90 168 11.0 18.0 0.00 0.00 0.00 100 1009.4
20260904191612 92 184 5.0 18.0 0.00 0.00 0.00 100 1009.4
20260904191112 89 185 13.0 18.0 0.00 0.00 0.00 100 1009.4
20260904190611 90 226 3.0 16.0 0.00 0.00 0.00 100 1009.4
20260904190111 92 227 6.0 16.0 0.00 0.00 0.00 100 1009.4
20260904185611 91 199 7.0 15.0 0.00 0.00 0.00 100 1009.4
20260904185326 88 208 2.0 15.0 0.00 0.00 0.00 100 1009.4
20260904184553 89 272 9.0 15.0 0.00 0.00 0.00 100 1009.4
20260904184052 91 243 5.0 15.0 0.00 0.00 0.00 100 1009.4
20260904183552 92 25 10.0 14.0 0.00 0.00 0.00 100 1009.4
20260904183051 90 206 6.0 15.0 0.00 0.00 0.00 100 1009.4
20260904182812 89 188 8.0 15.0 0.00 0.00 0.00 100 1009.4
20260904182050 86 202 6.0 15.0 0.00 0.00 0.00 100 1009.4
20260904181549 88 178 9.0 15.0 0.00 0.00 0.00 100 1009.4
20260904181049 89 203 9.0 15.0 0.00 0.00 0.00 100 1009.4
20260904180548 86 137 9.0 17.0 0.00 0.00 0.00 100 1009.4
20260904180047 87 163 6.0 18.0 0.00 0.00 0.00 100 1009.4
20260904175547 87 133 9.0 18.0 0.00 0.00 0.00 100 1009.4
20260904175311 87 199 7.0 17.0 0.00 0.00 0.00 100 1009.4
20260904174545 88 150 9.0 17.0 0.00 0.00 0.00 100 1009.4
20260904174044 87 220 10.0 16.0 0.00 0.00 0.00 100 1009.4
20260904173545 89 163 7.0 17.0 0.00 0.00 0.00 100 1009.4
20260904173311 89 172 3.0 17.0 0.00 0.00 0.00 100 1009.4
20260904172543 89 195 11.0 17.0 0.00 0.00 0.00 100 1009.4
20260904172043 89 216 8.0 15.0 0.00 0.00 0.00 100 1009.4
20260904171542 88 153 10.0 15.0 0.00 0.00 0.00 100 1009.4
20260904171041 89 132 10.0 14.0 0.00 0.00 0.00 100 1009.4
20260904170800 89 177 8.0 14.0 0.00 0.00 0.00 100 1009.4
20260904170040 89 164 9.0 15.0 0.00 0.00 0.00 100 1009.4
20260904165539 89 168 8.0 15.0 0.00 0.00 0.00 100 1009.4
20260904165039 88 194 10.0 17.0 0.00 0.00 0.00 100 1009.4
20260904164757 88 113 10.0 17.0 0.00 0.00 0.00 100 1009.4
20260904164037 88 157 11.0 17.0 0.00 0.00 0.00 100 1009.4
20260904163537 88 188 8.0 15.0 0.00 0.00 0.00 100 1009.4
20260904163303 87 139 9.0 14.0 0.00 0.00 0.00 100 1009.4
20260904162536 87 150 7.0 13.0 0.00 0.00 0.00 100 1009.4
20260904162255 87 189 5.0 15.0 0.00 0.00 0.00 100 1009.4
20260904161535 87 243 6.0 15.0 0.00 0.00 0.00 100 1009.4
20260904161034 87 205 9.0 15.0 0.00 0.00 0.00 100 1009.4
20260904160752 87 208 7.0 13.0 0.00 0.00 0.00 100 1009.4
20260904160033 87 165 8.0 13.0 0.00 0.00 0.00 100 1009.4
20260904155532 87 174 7.0 13.0 0.00 0.00 0.00 100 1009.4
20260904155032 86 220 8.0 14.0 0.00 0.00 0.00 100 1009.4
20260904154531 86 194 7.0 14.0 0.00 0.00 0.00 100 1009.4
20260904154030 85 174 9.0 14.0 0.00 0.00 0.00 100 1009.4
20260904153530 84 198 9.0 14.0 0.00 0.00 0.00 100 1009.4
20260904153029 85 150 7.0 14.0 0.00 0.00 0.00 100 1009.4
20260904152528 84 153 6.0 14.0 0.00 0.00 0.00 100 1009.4
20260904152028 84 157 9.0 14.0 0.00 0.00 0.00 100 1009.4
20260904151528 83 168 11.0 16.0 0.00 0.00 0.00 100 1009.4
20260904151027 83 195 10.0 16.0 0.00 0.00 0.00 100 1009.4
20260904150526 83 136 9.0 16.0 0.00 0.00 0.00 100 1009.4
20260904150026 83 163 8.0 14.0 0.00 0.00 0.00 100 1009.4
20260904145525 83 167 8.0 14.0 0.00 0.00 0.00 100 1009.4
20260904145024 82 178 8.0 14.0 0.00 0.00 0.00 100 1009.4
20260904144747 82 137 9.0 17.0 0.00 0.00 0.00 100 1009.4
20260904144023 82 181 6.0 17.0 0.00 0.00 0.00 100 1009.4
20260904143523 82 157 11.0 17.0 0.00 0.00 0.00 100 1009.4
20260904143022 82 174 7.0 14.0 0.00 0.00 0.00 100 1009.4
20260904142743 81 163 9.0 14.0 0.00 0.00 0.00 100 1009.4
20260904142021 81 165 8.0 14.0 0.00 0.00 0.00 100 1009.4
20260904141520 78 157 10.0 14.0 0.00 0.00 0.00 100 1009.4
20260904141020 80 147 10.0 12.0 0.00 0.00 0.00 100 1009.4
20260904140519 79 160 7.0 11.0 0.00 0.00 0.00 100 1009.4
20260904140019 80 160 6.0 10.0 0.00 0.00 0.00 100 1009.4
20260904135518 79 181 6.0 10.0 0.00 0.00 0.00 100 1009.4
20260904135017 79 144 7.0 9.0 0.00 0.00 0.00 100 1009.4
20260904134738 76 160 5.0 8.0 0.00 0.00 0.00 100 1009.4
20260904134016 76 164 5.0 7.0 0.00 0.00 0.00 100 1009.4
20260904133515 77 150 3.0 5.0 0.00 0.00 0.00 100 1009.4
20260904133014 76 170 2.0 5.0 0.00 0.00 0.00 100 1009.4
20260904132515 77 139 3.0 5.0 0.00 0.00 0.00 100 1009.4
20260904132234 76 125 3.0 5.0 0.00 0.00 0.00 100 1009.4
20260904131736 76 126 3.0 5.0 0.00 0.00 0.00 100 1009.4
20260904131013 76 123 3.0 5.0 0.00 0.00 0.00 100 1009.4
20260904130512 76 149 2.0 5.0 0.00 0.00 0.00 100 1009.4
20260904130011 76 144 1.0 7.0 0.00 0.00 0.00 100 1009.4
20260904125510 78 137 3.0 7.0 0.00 0.00 0.00 100 1009.4
20260904125010 76 147 4.0 7.0 0.00 0.00 0.00 100 1009.4
20260904124733 76 150 4.0 7.0 0.00 0.00 0.00 100 1009.4
20260904124008 76 156 5.0 7.0 0.00 0.00 0.00 100 1009.4
20260904123730 76 163 5.0 7.0 0.00 0.00 0.00 100 1009.4
20260904123008 76 165 5.0 6.0 0.00 0.00 0.00 100 1009.4
20260904122727 77 153 3.0 6.0 0.00 0.00 0.00 100 1009.4
20260904122006 76 144 4.0 6.0 0.00 0.00 0.00 100 1009.4
20260904121505 75 140 3.0 5.0 0.00 0.00 0.00 100 1009.4
20260904121225 74 142 3.0 5.0 0.00 0.00 0.00 100 1009.4
20260904120505 73 113 0.0 0.0 0.00 0.00 0.00 100 1009.4
20260904115959 74 113 0.0 0.0 0.00 0.00 0.00 100 1009.4
20260904115439 74 113 0.0 0.0 0.00 0.00 0.00 100 1009.4
20260904115142 75 113 0.0 0.0 0.00 0.00 0.00 100 1009.4
20260904114415 75 113 0.0 0.0 0.00 0.00 0.00 100 1009.4
20260904113905 76 113 0.0 0.0 0.00 0.00 0.00 100 1009.4
20260904113337 77 113 0.0 0.0 0.00 0.00 0.00 100 1009.4
20260904112812 77 113 0.0 0.0 0.00 0.00 0.00 100 1009.4
20260904112311 74 113 0.0 0.0 0.00 0.00 0.00 100 1009.4
20260904112024 72 113 0.0 0.0 0.00 0.00 0.00 100 1009.4
20260904111527 73 113 0.0 0.0 0.00 0.00 0.00 100 1009.4
20260904110756 74 113 0.0 0.0 0.00 0.00 0.00 100 1009.4
20260904110255 74 113 0.0 0.0 0.00 0.00 0.00 100 1009.4
20260904110017 75 113 0.0 0.0 0.00 0.00 0.00 100 1009.4
20260904105250 75 113 0.0 0.0 0.00 0.00 0.00 100 1009.4
20260904104948 74 113 0.0 0.0 0.00 0.00 0.00 100 1009.4
20260904104200 75 113 0.0 0.0 0.00 0.00 0.00 100 1009.4
20260904103648 75 113 0.0 0.0 0.00 0.00 0.00 100 1009.4
20260904103120 76 113 0.0 0.0 0.00 0.00 0.00 100 1009.4
20260904102815 76 113 0.0 0.0 0.00 0.00 0.00 100 1009.4
20260904102050 76 113 0.0 0.0 0.00 0.00 0.00 100 1009.4
20260904101546 77 113 0.0 0.0 0.00 0.00 0.00 100 1009.4
20260904101045 76 113 0.0 0.0 0.00 0.00 0.00 100 1009.4
20260904100537 77 113 0.0 0.0 0.00 0.00 0.00 100 1009.4
20260904100011 76 113 0.0 0.0 0.00 0.00 0.00 100 1009.4
20260904095501 76 113 0.0 0.0 0.00 0.00 0.00 100 1009.4
20260904094950 76 113 0.0 0.0 0.00 0.00 0.00 100 1009.4
20260904094659 75 113 0.0 0.0 0.00 0.00 0.00 100 1009.4
20260904093935 76 113 0.0 0.0 0.00 0.00 0.00 100 1009.4
20260904093429 78 113 0.0 3.0 0.00 0.00 0.00 100 1009.4
20260904092929 79 113 0.0 5.0 0.00 0.00 0.00 100 1009.4
20260904091916 79 160 3.0 5.0 0.00 0.00 0.00 100 1009.4
20260904091643 80 161 2.0 5.0 0.00 0.00 0.00 100 1009.4
20260904090910 77 160 3.0 5.0 0.00 0.00 0.00 100 1009.4
20260904090409 77 154 0.0 4.0 0.00 0.00 0.00 100 1009.4
20260904085908 72 150 0.0 4.0 0.00 0.00 0.00 100 1009.4
20260904085620 76 164 2.0 5.0 0.00 0.00 0.00 100 1009.4
20260904085120 77 165 2.0 5.0 0.00 0.00 0.00 100 1009.4
20260904084617 80 196 3.0 6.0 0.00 0.00 0.00 100 1009.4
20260904084119 78 168 4.0 6.0 0.00 0.00 0.00 100 1009.4
20260904083358 77 150 5.0 6.0 0.00 0.00 0.00 100 1009.4
20260904082857 78 157 4.0 6.0 0.00 0.00 0.00 100 1009.4
20260904082619 81 142 3.0 6.0 0.00 0.00 0.00 100 1009.4
20260904081856 83 139 4.0 7.0 0.00 0.00 0.00 100 1009.4
20260904081617 83 168 4.0 7.0 0.00 0.00 0.00 100 1009.4
20260904080854 83 191 5.0 7.0 0.00 0.00 0.00 100 1009.4
20260904080354 83 165 4.0 7.0 0.00 0.00 0.00 100 1009.4
20260904075853 85 161 4.0 8.0 0.00 0.00 0.00 100 1009.4
20260904075352 85 194 4.0 8.0 0.00 0.00 0.00 100 1009.4
20260904074853 85 158 4.0 9.0 0.00 0.00 0.00 100 1009.4
20260904074352 85 182 5.0 9.0 0.00 0.00 0.00 100 1009.4
20260904074112 85 180 7.0 9.0 0.00 0.00 0.00 100 1009.4
20260904072849 85 196 3.0 9.0 0.00 0.00 0.00 100 1009.4
20260904072349 85 167 4.0 13.0 0.00 0.00 0.00 100 1009.4
20260904071849 86 217 4.0 13.0 0.00 0.00 0.00 100 1009.4
20260904071348 86 172 7.0 13.0 0.00 0.00 0.00 100 1009.4
20260904070847 86 191 5.0 11.0 0.00 0.00 0.00 100 1009.4
20260904070347 86 198 6.0 10.0 0.00 0.00 0.00 100 1009.4
20260904065846 86 188 6.0 11.0 0.00 0.00 0.00 100 1009.4
20260904065345 86 185 6.0 11.0 0.00 0.00 0.00 100 1009.4
20260904064844 86 201 7.0 10.0 0.00 0.00 0.00 100 1009.4
20260904064344 86 177 6.0 11.0 0.00 0.00 0.00 100 1009.4
20260904063844 87 188 5.0 11.0 0.00 0.00 0.00 100 1009.4
20260904063343 86 177 6.0 11.0 0.00 0.00 0.00 100 1009.4
20260904062842 87 181 7.0 13.0 0.00 0.00 0.00 100 1009.4
20260904062340 87 149 8.0 13.0 0.00 0.00 0.00 100 1009.4
20260904061839 87 147 6.0 11.0 0.00 0.00 0.00 100 1009.4
20260904061339 87 147 7.0 11.0 0.00 0.00 0.00 100 1009.4
20260904060838 87 161 7.0 11.0 0.00 0.00 0.00 100 1009.4
20260904060337 87 154 8.0 11.0 0.00 0.00 0.00 100 1009.4
20260904055837 87 187 6.0 13.0 0.00 0.00 0.00 100 1009.4
20260904055600 87 180 8.0 13.0 0.00 0.00 0.00 100 1009.4
20260904054835 87 153 7.0 12.0 0.00 0.00 0.00 100 1009.4
20260904054334 85 196 5.0 9.0 0.00 0.00 0.00 100 1009.4
20260904053835 85 194 5.0 9.0 0.00 0.00 0.00 100 1009.4
20260904053334 85 199 3.0 7.0 0.00 0.00 0.00 100 1009.4
20260904053055 83 196 2.0 7.0 0.00 0.00 0.00 100 1009.4
20260904052559 83 147 3.0 7.0 0.00 0.00 0.00 100 1009.4
20260904051832 82 149 4.0 7.0 0.00 0.00 0.00 100 1009.4
20260904051331 82 149 0.0 6.0 0.00 0.00 0.00 100 1009.4
20260904050814 83 149 0.0 6.0 0.00 0.00 0.00 100 1009.4
20260904050529 83 139 0.0 3.0 0.00 0.00 0.00 100 1009.4
20260904045756 83 178 0.0 2.0 0.00 0.00 0.00 100 1009.4
20260904045254 83 178 0.0 3.0 0.00 0.00 0.00 100 1009.4
20260904044749 85 177 0.0 4.0 0.00 0.00 0.00 100 1009.4
20260904044457 85 182 0.0 4.0 0.00 0.00 0.00 100 1009.4
20260904043948 85 215 0.0 6.0 0.00 0.00 0.00 100 1009.4